CW9688 Weather Reports


time (UTC)temp
C
wind
direction
speed
KPH
gust
KPH
rain 1hr
cm
rain 24hr
cm
rain mn
cm
humidity
%
barometer
mb
20260504175804 22 276 16.1 29.0 0.00 0.00 0.00 22 1010.4
20260504175304 22 333 16.1 32.2 0.00 0.00 0.00 23 1010.4
20260504173304 21 302 11.3 24.1 0.00 0.00 0.00 24 1010.4
20260504172803 22 319 12.9 29.0 0.00 0.00 0.00 23 1010.4
20260504170803 21 286 14.5 32.2 0.00 0.00 0.00 24 1010.4
20260504160303 19 276 16.1 29.0 0.00 0.00 0.00 26 1010.4
20260504140805 12 171 1.6 4.8 0.00 0.00 0.00 40 1010.4
20260504130305 9 0 0.0 0.0 0.00 0.00 0.00 45 1010.4
20260504120304 6 169 0.0 1.6 0.00 0.00 0.00 54 1010.4
20260504110305 6 202 3.2 4.8 0.00 0.00 0.00 58 1010.4
20260504100305 7 202 1.6 3.2 0.00 0.00 0.00 53 1010.4
20260504081305 8 202 1.6 3.2 0.00 0.00 0.00 47 1010.4
20260504080305 8 202 1.6 3.2 0.00 0.00 0.00 45 1010.4
20260504045805 15 212 3.2 4.8 0.00 0.00 0.00 30 1010.4
20260504044805 16 229 3.2 4.8 0.00 0.00 0.00 28 1010.4
20260504043804 16 219 4.8 9.7 0.00 0.00 0.00 28 1010.4
20260504043305 16 206 4.8 8.0 0.00 0.00 0.00 28 1010.4
20260504042804 16 220 4.8 9.7 0.00 0.00 0.00 28 1010.4
20260504041304 17 209 4.8 9.7 0.00 0.00 0.00 28 1010.4
20260504040804 17 202 4.8 9.7 0.00 0.00 0.00 28 1010.4
20260504035805 17 207 4.8 9.7 0.00 0.00 0.00 28 1010.4
20260504034804 17 217 4.8 9.7 0.00 0.00 0.00 27 1010.4
20260504034305 16 211 4.8 9.7 0.00 0.00 0.00 28 1010.4
20260504033805 16 208 3.2 8.0 0.00 0.00 0.00 28 1010.4
20260504031804 17 204 6.4 12.9 0.00 0.00 0.00 28 1010.4
20260504031304 17 194 4.8 11.3 0.00 0.00 0.00 28 1010.4
20260504024805 17 230 8.0 11.3 0.00 0.00 0.00 26 1010.4
20260504024304 17 167 6.4 11.3 0.00 0.00 0.00 27 1010.4
20260504023804 17 197 4.8 12.9 0.00 0.00 0.00 27 1010.4
20260504022805 17 188 4.8 8.0 0.00 0.00 0.00 26 1010.4
20260504022305 17 197 6.4 11.3 0.00 0.00 0.00 26 1010.4
20260504021305 17 173 8.0 11.3 0.00 0.00 0.00 26 1010.4
20260504020805 17 199 4.8 8.0 0.00 0.00 0.00 26 1010.4
20260504020304 17 233 3.2 8.0 0.00 0.00 0.00 26 1010.4
20260504015805 18 219 1.6 3.2 0.00 0.00 0.00 25 1010.4
20260504015305 18 355 0.0 4.8 0.00 0.00 0.00 25 1010.4
20260504014804 18 331 3.2 4.8 0.00 0.00 0.00 25 1010.4
20260504014305 19 224 1.6 4.8 0.00 0.00 0.00 23 1010.4
20260504013805 19 236 3.2 11.3 0.00 0.00 0.00 22 1010.4
20260504013304 19 290 14.5 27.4 0.00 0.00 0.00 21 1010.4
20260504012305 19 318 11.3 19.3 0.00 0.00 0.00 22 1010.4
20260504010804 18 323 3.2 9.7 0.00 0.00 0.00 23 1010.4
20260504010304 18 341 4.8 11.3 0.00 0.00 0.00 25 1010.4
20260504005805 18 40 8.0 12.9 0.00 0.00 0.00 25 1010.4
20260504002305 19 347 11.3 22.5 0.00 0.00 0.00 26 1010.4
20260504001304 20 305 20.9 40.2 0.00 0.00 0.00 23 1010.4
20260504000804 20 260 4.8 8.0 0.00 0.00 0.00 22 1010.4
20260504000306 20 227 6.4 9.7 0.00 0.00 0.00 22 1010.4
20260503235804 20 249 3.2 4.8 0.00 0.00 0.00 22 1010.4
20260503234805 20 173 3.2 8.0 0.00 0.00 0.00 21 1010.4
20260503234305 21 3 0.0 1.6 0.00 0.00 0.00 21 1010.4
20260503232305 21 253 3.2 8.0 0.00 0.00 0.00 19 1010.4
20260503230804 20 355 4.8 8.0 0.00 0.00 0.00 20 1010.4
20260503225805 21 335 3.2 14.5 0.00 0.00 0.00 19 1010.4
20260503225305 21 335 8.0 19.3 0.00 0.00 0.00 18 1010.4
20260503224305 21 340 8.0 14.5 0.00 0.00 0.00 18 1010.4
20260503223304 21 289 11.3 19.3 0.00 0.00 0.00 17 1010.4
20260503222804 21 43 16.1 35.4 0.00 0.00 0.00 18 1010.4
20260503222305 22 339 11.3 20.9 0.00 0.00 0.00 17 1010.4
20260503221305 22 263 6.4 20.9 0.00 0.00 0.00 16 1010.4
20260503220304 22 265 17.7 32.2 0.00 0.00 0.00 15 1010.4
20260503215804 22 242 16.1 33.8 0.00 0.00 0.00 16 1010.4
20260503213304 22 185 16.1 29.0 0.00 0.00 0.00 16 1010.4
20260503212804 22 243 8.0 16.1 0.00 0.00 0.00 15 1010.4
20260503212305 22 245 4.8 8.0 0.00 0.00 0.00 15 1010.4
20260503210804 22 328 9.7 20.9 0.00 0.00 0.00 15 1010.4
20260503205805 22 309 11.3 19.3 0.00 0.00 0.00 15 1010.4
20260503205305 22 297 11.3 29.0 0.00 0.00 0.00 15 1010.4
20260503204304 24 320 9.7 20.9 0.00 0.00 0.00 14 1010.4
20260503203804 24 349 14.5 25.7 0.00 0.00 0.00 15 1010.4
20260503203305 24 326 9.7 24.1 0.00 0.00 0.00 14 1010.4
20260503200805 24 308 11.3 24.1 0.00 0.00 0.00 15 1010.4
20260503195805 23 321 9.7 19.3 0.00 0.00 0.00 14 1010.4
20260503194805 23 295 8.0 22.5 0.00 0.00 0.00 14 1010.4
20260503194304 23 355 14.5 20.9 0.00 0.00 0.00 15 1010.4
20260503193804 23 352 11.3 19.3 0.00 0.00 0.00 15 1010.4
20260503192805 25 0 17.7 29.0 0.00 0.00 0.00 14 1010.4
20260503191805 25 310 20.9 32.2 0.00 0.00 0.00 14 1010.4
20260503191304 23 348 16.1 32.2 0.00 0.00 0.00 15 1010.4
20260503190805 24 343 17.7 29.0 0.00 0.00 0.00 14 1010.4
20260503190304 23 324 12.9 22.5 0.00 0.00 0.00 16 1010.4
20260503185305 25 266 16.1 24.1 0.00 0.00 0.00 13 1010.4
20260503184805 24 336 16.1 32.2 0.00 0.00 0.00 13 1010.4
20260503184305 25 311 16.1 32.2 0.00 0.00 0.00 14 1010.4
20260503183304 24 298 16.1 27.4 0.00 0.00 0.00 14 1010.4
20260503182804 24 304 11.3 24.1 0.00 0.00 0.00 13 1010.4
20260503182305 23 265 16.1 25.7 0.00 0.00 0.00 13 1010.4